TimeEST,TemperatureF,Dew PointF,Humidity,Sea Level PressureIn,VisibilityMPH,Wind Direction,Wind SpeedMPH,Gust SpeedMPH,PrecipitationIn,Events,Conditions,WindDirDegrees,DateUTC
12:51 AM,41.0,25.0,53,29.76,10.0,South,12.7,-,N/A,,Overcast,170,2013-01-20 05:51:00
1:51 AM,39.2,26.6,61,29.73,10.0,South,15.0,20.7,N/A,,Mostly Cloudy,170,2013-01-20 06:51:00
2:51 AM,41.0,26.1,55,29.71,10.0,South,13.8,23.0,N/A,,Mostly Cloudy,170,2013-01-20 07:51:00
3:51 AM,39.9,26.1,58,29.68,10.0,South,18.4,25.3,N/A,,Scattered Clouds,180,2013-01-20 08:51:00
4:51 AM,39.0,26.1,60,29.64,10.0,South,12.7,-,N/A,,Clear,170,2013-01-20 09:51:00
5:51 AM,37.9,26.1,62,29.62,10.0,South,15.0,19.6,N/A,,Clear,190,2013-01-20 10:51:00
6:51 AM,37.0,26.1,65,29.60,10.0,South,12.7,19.6,N/A,,Partly Cloudy,180,2013-01-20 11:51:00
7:51 AM,37.9,26.1,62,29.57,10.0,SSE,18.4,28.8,N/A,,Mostly Cloudy,160,2013-01-20 12:51:00
8:51 AM,39.0,26.1,60,29.55,10.0,South,19.6,26.5,N/A,,Mostly Cloudy,170,2013-01-20 13:51:00
9:51 AM,39.9,27.0,60,29.62,10.0,NW,16.1,23.0,N/A,,Mostly Cloudy,310,2013-01-20 14:51:00
10:51 AM,37.4,32.0,81,29.66,10.0,NW,13.8,-,N/A,Rain,Light Rain,320,2013-01-20 15:51:00
10:58 AM,37.4,30.2,75,29.67,10.0,WNW,17.3,25.3,0.00,Rain-Snow,Light Rain,290,2013-01-20 15:58:00
11:08 AM,37.4,30.2,75,29.67,10.0,West,17.3,20.7,0.00,,Mostly Cloudy,270,2013-01-20 16:08:00
11:51 AM,43.0,28.0,56,29.66,10.0,West,12.7,20.7,0.00,,Scattered Clouds,280,2013-01-20 16:51:00
12:51 PM,41.0,19.9,43,29.70,10.0,WNW,15.0,28.8,N/A,,Scattered Clouds,300,2013-01-20 17:51:00
1:51 PM,37.9,19.0,47,29.73,10.0,NW,17.3,31.1,N/A,,Scattered Clouds,310,2013-01-20 18:51:00
2:51 PM,35.1,16.0,46,29.79,10.0,WNW,18.4,29.9,N/A,,Mostly Cloudy,290,2013-01-20 19:51:00
3:51 PM,33.1,15.1,48,29.85,9.0,NW,20.7,29.9,0.00,Snow,Light Snow,310,2013-01-20 20:51:00
4:51 PM,28.9,14.0,54,29.90,10.0,WNW,20.7,25.3,0.00,,Mostly Cloudy,290,2013-01-20 21:51:00
5:51 PM,28.4,8.6,43,29.90,10.0,West,18.4,35.7,N/A,,Scattered Clouds,280,2013-01-20 22:51:00
6:51 PM,28.9,9.0,43,29.94,10.0,West,18.4,32.2,N/A,,Mostly Cloudy,280,2013-01-20 23:51:00
7:51 PM,28.0,10.0,47,29.96,10.0,West,16.1,28.8,N/A,,Mostly Cloudy,280,2013-01-21 00:51:00
8:51 PM,26.1,14.0,60,29.98,10.0,NW,10.4,20.7,N/A,,Overcast,310,2013-01-21 01:51:00
9:27 PM,24.8,17.6,74,29.99,2.5,WNW,13.8,-,0.00,Snow,Light Snow,300,2013-01-21 02:27:00
9:51 PM,23.0,17.6,80,30.00,2.5,WNW,16.1,25.3,N/A,Snow,Light Snow,300,2013-01-21 02:51:00
9:54 PM,23.0,17.6,80,30.00,3.0,WNW,12.7,20.7,0.00,Snow,Light Snow,300,2013-01-21 02:54:00
10:51 PM,21.0,12.9,71,30.04,9.0,NW,13.8,-,0.00,Snow,Light Snow,320,2013-01-21 03:51:00
11:51 PM,21.0,9.0,60,30.04,10.0,NW,15.0,19.6,0.00,Snow,Light Snow,310,2013-01-21 04:51:00